timestamp,surface_pressure_avg,surface_temp_avg,battery_voltage,lat,long
2018-02-04 00:00:00+00:00,302.7629,1.5,12.41,47.84626,-54.09684
2018-02-04 00:10:00+00:00,321.763,1.5,12.33,47.84626,-54.09684
2018-02-04 00:20:00+00:00,327.7147,1.58,12.41,47.84626,-54.09684
2018-02-04 00:30:00+00:00,333.6496,1.6,12.41,47.84626,-54.09684
2018-02-04 00:40:00+00:00,347.6329,1.6,12.41,47.84626,-54.09684
2018-02-04 00:50:00+00:00,359.033,1.6,12.41,47.84626,-54.09684
2018-02-04 01:00:00+00:00,361.5012,1.6,12.33,47.84626,-54.09684
2018-02-04 01:10:00+00:00,365.7546,1.6,12.33,47.84626,-54.09684
2018-02-04 01:20:00+00:00,375.1096,1.6,12.41,47.84626,-54.09684
2018-02-04 01:30:00+00:00,377.3312,1.6,12.41,47.84626,-54.09684
2018-02-04 01:40:00+00:00,370.6613,1.6,12.41,47.84626,-54.09684
2018-02-04 01:50:00+00:00,371.8513,1.6,12.41,47.84626,-54.09684
2018-02-04 02:00:00+00:00,381.0296,1.6,12.33,47.84626,-54.09684
2018-02-04 02:10:00+00:00,378.8963,1.6,12.33,47.84626,-54.09684
2018-02-04 02:20:00+00:00,375.4829,1.6,12.41,47.84626,-54.09684
2018-02-04 02:30:00+00:00,376.7446,1.57,12.41,47.84626,-54.09684
2018-02-04 02:40:00+00:00,377.8563,1.6,12.41,47.84626,-54.09684
2018-02-04 02:50:00+00:00,377.5513,1.6,12.41,47.84626,-54.09684
2018-02-04 03:00:00+00:00,375.0662,1.6,12.33,47.84626,-54.09684
2018-02-04 03:10:00+00:00,371.6412,1.6,12.33,47.84626,-54.09684
2018-02-04 03:20:00+00:00,368.9713,1.6,12.41,47.84626,-54.09684
2018-02-04 03:30:00+00:00,361.6962,1.6,12.41,47.84626,-54.09684
2018-02-04 03:40:00+00:00,352.5997,1.6,12.41,47.84626,-54.09684
2018-02-04 03:50:00+00:00,348.9596,1.6,12.41,47.84626,-54.09684
2018-02-04 04:00:00+00:00,343.8146,1.5,12.33,47.84626,-54.09684
2018-02-04 04:10:00+00:00,332.223,1.5,12.33,47.84626,-54.09684
2018-02-04 04:20:00+00:00,321.3646,1.56,12.41,47.84626,-54.09684
2018-02-04 04:30:00+00:00,320.508,1.59,12.41,47.84626,-54.09684
2018-02-04 04:40:00+00:00,309.8964,1.5,12.41,47.84626,-54.09684
2018-02-04 04:50:00+00:00,293.9313,1.4,12.41,47.84626,-54.09684
2018-02-04 05:00:00+00:00,286.1464,1.48,12.33,47.84626,-54.09684
2018-02-04 05:10:00+00:00,286.1263,1.4,12.33,47.84626,-54.09684
2018-02-04 05:20:00+00:00,275.3464,1.4,12.41,47.84626,-54.09684
2018-02-04 05:30:00+00:00,259.5597,1.4,12.41,47.84626,-54.09684
2018-02-04 05:40:00+00:00,249.9997,1.4,12.41,47.84626,-54.09684
2018-02-04 05:50:00+00:00,245.7431,1.4,12.41,47.84626,-54.09684
2018-02-04 06:00:00+00:00,231.0931,1.4,12.33,47.84626,-54.09684
2018-02-04 06:10:00+00:00,218.9364,1.4,12.33,47.84626,-54.09684
2018-02-04 06:20:00+00:00,219.7298,1.4,12.41,47.84626,-54.09684
2018-02-04 06:30:00+00:00,213.3047,1.46,12.41,47.84626,-54.09684
2018-02-04 06:40:00+00:00,198.5931,1.47,12.41,47.84626,-54.09684
2018-02-04 06:50:00+00:00,196.7681,1.47,12.41,47.84626,-54.09684
2018-02-04 07:00:00+00:00,196.0631,1.47,12.33,47.84626,-54.09684
2018-02-04 07:10:00+00:00,185.5964,1.48,12.33,47.84626,-54.09684
2018-02-04 07:20:00+00:00,182.9099,1.48,12.41,47.84626,-54.09684
2018-02-04 07:30:00+00:00,185.5865,1.48,12.33,47.84626,-54.09684
2018-02-04 07:40:00+00:00,179.6781,1.49,12.41,47.84626,-54.09684
2018-02-04 07:50:00+00:00,174.4081,1.49,12.41,47.84626,-54.09684
2018-02-04 08:00:00+00:00,180.5982,1.49,12.33,47.84626,-54.09684
2018-02-04 08:10:00+00:00,184.8798,1.49,12.25,47.84626,-54.09684
2018-02-04 08:20:00+00:00,181.1115,1.5,12.41,47.84626,-54.09684
2018-02-04 08:30:00+00:00,184.6531,1.49,12.33,47.84626,-54.09684
2018-02-04 08:40:00+00:00,190.2931,1.5,12.41,47.84626,-54.09684
2018-02-04 08:50:00+00:00,192.6431,1.5,12.41,47.84626,-54.09684
2018-02-04 09:00:00+00:00,197.7548,1.47,12.33,47.84626,-54.09684
2018-02-04 09:10:00+00:00,203.1631,1.38,12.25,47.84626,-54.09684
2018-02-04 09:20:00+00:00,205.3081,1.3,12.33,47.84626,-54.09684
2018-02-04 09:30:00+00:00,206.5398,1.39,12.33,47.84626,-54.09684
2018-02-04 09:40:00+00:00,213.1014,1.42,12.41,47.84626,-54.09684
2018-02-04 09:50:00+00:00,216.4498,1.44,12.41,47.84626,-54.09684
2018-02-04 10:00:00+00:00,215.3381,1.47,12.25,47.84626,-54.09684
2018-02-04 10:10:00+00:00,218.9847,1.47,12.25,47.84626,-54.09684
2018-02-04 10:20:00+00:00,225.5414,1.46,12.33,47.84626,-54.09684
2018-02-04 10:30:00+00:00,226.4831,1.45,12.33,47.84626,-54.09684
2018-02-04 10:40:00+00:00,222.4531,1.48,12.41,47.84626,-54.09684
2018-02-04 10:50:00+00:00,227.1014,1.5,12.41,47.84626,-54.09684
2018-02-04 11:00:00+00:00,238.548,1.5,12.25,47.84626,-54.09684
2018-02-04 11:10:00+00:00,238.1314,1.49,12.41,47.84626,-54.09684
2018-02-04 11:20:00+00:00,234.2564,1.47,12.81,47.84626,-54.09684
2018-02-04 11:30:00+00:00,248.2248,1.47,13.37,47.84626,-54.09684
2018-02-04 11:40:00+00:00,263.3964,1.49,12.97,47.84626,-54.09684
2018-02-04 11:50:00+00:00,264.5364,1.46,13.44,47.84626,-54.09684
2018-02-04 12:00:00+00:00,268.2914,1.4,13.6,47.84626,-54.09684
2018-02-04 12:10:00+00:00,283.818,1.6,13.84,47.84626,-54.09684
2018-02-04 12:20:00+00:00,297.8914,1.6,14.24,47.84626,-54.09684
2018-02-04 12:30:00+00:00,301.483,1.6,14.4,47.84626,-54.09684
2018-02-04 12:40:00+00:00,309.268,1.5,14.64,47.84626,-54.09684
2018-02-04 12:50:00+00:00,324.4529,1.56,13.29,47.84626,-54.09684
2018-02-04 13:00:00+00:00,332.7696,1.57,12.97,47.84626,-54.09684
2018-02-04 13:10:00+00:00,338.228,1.6,12.81,47.84626,-54.09684
2018-02-04 13:20:00+00:00,346.0262,1.59,12.89,47.84626,-54.09684
2018-02-04 13:30:00+00:00,356.773,1.6,12.89,47.84626,-54.09684
2018-02-04 13:40:00+00:00,358.5247,1.6,12.89,47.84626,-54.09684
2018-02-04 13:50:00+00:00,357.3245,1.6,12.81,47.84626,-54.09684
2018-02-04 14:00:00+00:00,360.6946,1.6,12.73,47.84626,-54.09684
2018-02-04 14:10:00+00:00,364.9062,1.6,12.73,47.84626,-54.09684
2018-02-04 14:20:00+00:00,365.7346,1.6,12.81,47.84626,-54.09684
2018-02-04 14:30:00+00:00,365.3946,1.6,12.73,47.84626,-54.09684
2018-02-04 14:40:00+00:00,364.1796,1.6,12.81,47.84626,-54.09684
2018-02-04 14:50:00+00:00,363.4829,1.6,12.81,47.84626,-54.09684
2018-02-04 15:00:00+00:00,363.3162,1.6,12.65,47.84626,-54.09684
2018-02-04 15:10:00+00:00,364.1646,1.6,12.65,47.84626,-54.09684
2018-02-04 15:20:00+00:00,359.0413,1.6,12.73,47.84626,-54.09684
2018-02-04 15:30:00+00:00,353.6563,1.6,12.73,47.84626,-54.09684
2018-02-04 15:40:00+00:00,350.5796,1.6,12.73,47.84626,-54.09684
2018-02-04 15:50:00+00:00,348.1329,1.6,12.73,47.84626,-54.09684
2018-02-04 16:00:00+00:00,340.3047,1.6,12.65,47.84626,-54.09684
2018-02-04 16:10:00+00:00,332.2847,1.6,12.65,47.84626,-54.09684
2018-02-04 16:20:00+00:00,327.4014,1.6,12.73,47.84626,-54.09684
2018-02-04 16:30:00+00:00,324.398,1.6,12.65,47.84626,-54.09684
2018-02-04 16:40:00+00:00,316.9612,1.6,12.73,47.84626,-54.09684
2018-02-04 16:50:00+00:00,303.5847,1.59,12.73,47.84626,-54.09684
2018-02-04 17:00:00+00:00,293.3614,1.6,12.65,47.84626,-54.09684
2018-02-04 17:10:00+00:00,283.3664,1.58,12.57,47.84626,-54.09684
2018-02-04 17:20:00+00:00,271.3997,1.59,12.65,47.84626,-54.09684
2018-02-04 17:30:00+00:00,258.4764,1.59,13.44,47.84626,-54.09684
2018-02-04 17:40:00+00:00,252.0714,1.5,13.53,47.84626,-54.09684
2018-02-04 17:50:00+00:00,243.3531,1.4,13.29,47.84626,-54.09684
2018-02-04 18:00:00+00:00,234.0164,1.4,13.13,47.84626,-54.09684
2018-02-04 18:10:00+00:00,228.1497,1.4,12.97,47.84626,-54.09684
2018-02-04 18:20:00+00:00,222.9514,1.2,12.97,47.84626,-54.09684
2018-02-04 18:30:00+00:00,212.1681,1.3,12.97,47.84626,-54.09684
2018-02-04 18:40:00+00:00,200.7465,1.2,12.97,47.84626,-54.09684
2018-02-04 18:50:00+00:00,196.5815,1.22,13.05,47.84626,-54.09684
2018-02-04 19:00:00+00:00,190.2032,1.09,13.13,47.84626,-54.09684
2018-02-04 19:10:00+00:00,173.4465,1.04,13.05,47.84626,-54.09684
2018-02-04 19:20:00+00:00,167.0648,1.0,13.05,47.84626,-54.09684
2018-02-04 19:30:00+00:00,171.5915,0.29,13.05,47.84626,-54.09684
2018-02-04 19:40:00+00:00,164.7715,0.41,12.97,47.84626,-54.09684
2018-02-04 19:50:00+00:00,158.4065,0.5,12.97,47.84626,-54.09684
2018-02-04 20:00:00+00:00,161.8098,0.1,12.81,47.84626,-54.09684
2018-02-04 20:10:00+00:00,163.1582,0.18,12.73,47.84626,-54.09684
2018-02-04 20:20:00+00:00,159.8048,0.4,12.81,47.84626,-54.09684
2018-02-04 20:30:00+00:00,159.2832,0.3,12.81,47.84626,-54.09684
2018-02-04 20:40:00+00:00,162.4849,0.3,12.81,47.84626,-54.09684
2018-02-04 20:50:00+00:00,167.1148,0.2,12.81,47.84626,-54.09684
2018-02-04 21:00:00+00:00,169.8932,0.3,12.73,47.84626,-54.09684
2018-02-04 21:10:00+00:00,174.4848,0.1,12.65,47.84626,-54.09684
2018-02-04 21:20:00+00:00,182.1898,0.1,12.73,47.84626,-54.09684
2018-02-04 21:30:00+00:00,187.1081,0.25,12.73,47.84626,-54.09684
2018-02-04 21:40:00+00:00,193.3698,0.3,12.73,47.84626,-54.09684
2018-02-04 21:50:00+00:00,198.6515,0.36,12.73,47.84626,-54.09684
2018-02-04 22:00:00+00:00,198.8581,0.49,12.65,47.84626,-54.09684
2018-02-04 22:10:00+00:00,200.5114,0.6,12.65,47.84626,-54.09684
2018-02-04 22:20:00+00:00,203.7198,0.62,12.73,47.84626,-54.09684
2018-02-04 22:30:00+00:00,204.0848,0.65,12.73,47.84626,-54.09684
2018-02-04 22:40:00+00:00,205.2314,0.88,12.73,47.84626,-54.09684
2018-02-04 22:50:00+00:00,210.3381,0.9,12.73,47.84626,-54.09684
2018-02-04 23:00:00+00:00,214.4948,0.87,12.65,47.84626,-54.09684
2018-02-04 23:10:00+00:00,212.7381,0.69,12.65,47.84626,-54.09684
2018-02-04 23:20:00+00:00,216.4114,0.8,12.65,47.84626,-54.09684
2018-02-04 23:30:00+00:00,225.1981,0.8,12.65,47.84626,-54.09684
2018-02-04 23:40:00+00:00,230.7415,0.85,12.65,47.84626,-54.09684
2018-02-04 23:50:00+00:00,233.0414,0.9,12.65,47.84626,-54.09684
